Regional Weather Roundup
Issued by NWS Austin/San Antonio, TX

Current Version | Previous Version | Text Only | Print | Product List | Glossary On
Versions: 1 2 3 4 5 6 7 8 9 10 11 12 13 14 15 16 17 18 19 20 21 22 23 24 25 26 27 28 29 30 31 32 33 34 35 36 37 38 39 40 41 42 43 44 45 46 47 48 49 50
000
ASUS44 KEWX 200410
RWREWX
SOUTH TEXAS REGIONAL WEATHER ROUNDUP
NATIONAL WEATHER SERVICE AUSTIN/SAN ANTONIO TX
1100 PM CDT FRI APR 19 2024

NOTE: "FAIR" INDICATED FEW OR NO CLOUDS BELOW 12,000 FEET WITH NO
SIGNIFICANT WEATHER AND/OR OBSTRUCTIONS TO VISIBILITY.

* - THESE STATIONS ARE NOT NWS OR FAA STATIONS...AND ARE NOT SUBJECT
    TO NWS AND FAA QUALITY CONTROL.

TXZ171-172-183>190-200500-
TEXAS HILL COUNTRY AND EDWARDS PLATEAU

CITY           SKY/WX    TMP DP  RH WIND       PRES   REMARKS
JUNCTION       CLOUDY    69  59  70 E6        30.08R
*LLANO         CLOUDY    66  57  72 E8        30.06R
BURNET         CLOUDY    65  59  81 NE12      30.07R
*HORSESHOE BAY CLOUDY    68  59  73 E5        30.07R
*LAGO VISTA    CLOUDY    65  60  83 NE8       30.06R
*KERRVILLE     CLOUDY    69  60  71 E3        30.05R
*FREDERICKSBRG CLOUDY    67  59  74 NE8       30.05S
*ROCKSPRINGS   CLOUDY    70  59  68 E10       30.10S
*BOERNE        CLOUDY    68  59  73 NE7       30.04R
*CASTROVILLE   CLOUDY    76  61  60 E8        30.02R
HONDO          CLOUDY    74  63  68 E14       30.00R
*UVALDE        CLOUDY    75  64  67 E9        30.02R
DEL RIO        LGT RAIN  78  66  66 NE9       29.98S
*LAUGHLIN AFB  CLOUDY    77  66  69 NE10      29.96S
*SPOFFORD      NOT AVBL
CARRIZO SPRGS  CLOUDY    77  64  65 E8        29.97R
*FAITH RANCH   CLOUDY    79  68  69 NE17      29.97R
$$

TXZ173-191>194-202-209-217>225-228-200500-
CENTRAL AND SOUTH CENTRAL TEXAS

CITY           SKY/WX    TMP DP  RH WIND       PRES   REMARKS
GEORGETOWN     CLOUDY    66  59  78 N8        30.07R
*TAYLOR        CLOUDY    67  60  77 N9        30.03S
AUSTIN/BERGSTM CLOUDY    71  62  73 NE12      30.03R
AUSTIN/MABRY   CLOUDY    70  60  70 CALM      30.04R
*PFLUGERVILLE  CLOUDY    70  64  83 NE6G13    30.02R
SAN MARCOS     CLOUDY    71  63  75 NE8       30.04R
NEW BRAUNFELS  CLOUDY    72  63  73 NE12      30.00R
*RANDOLPH AFB  CLOUDY    73  62  69 NE6       29.99R
*SEGUIN          N/A     73  65  76 NE9       29.99R
SAN ANTONIO    CLOUDY    72  62  71 NE9       30.01R
STINSON FIELD  CLOUDY    74  63  68 NE8       29.99R
*KELLY FIELD   CLOUDY    73  63  68 E8        29.98R
*PLEASANTON    CLOUDY    76  66  72 NE6       30.01R
*KENEDY        CLOUDY    74  71  89 E7        30.00R
*LA GRANGE     CLOUDY    72  70  94 N6        29.98R
*GIDDINGS      CLOUDY    70  64  80 CALM      30.02R
*GONZALES      CLOUDY    74  67  80 CALM      30.02R
$$

TXZ163>164-176>182-195>201-210>213-226-227-235-200500-
SOUTHEAST TEXAS

CITY           SKY/WX    TMP DP  RH WIND       PRES   REMARKS
COLLEGE STN    CLOUDY    72  64  76 N12       30.02R
*BRYAN         CLOUDY    70  64  82 N9        30.05R
*CALDWELL      CLOUDY    70  63  80 N10       30.02S
*CROCKETT      CLOUDY    70  70 100 N6G12     30.03R FOG
*BRENHAM       CLOUDY    74  68  81 N5        30.00R
HUNTSVILLE     CLOUDY    72  67  84 N5        30.02R
CONROE         PTCLDY    73  70  90 SE6       30.01R
HOUSTON BUSH   PTCLDY    74  71  91 SE8       29.99S
HOUSTON HOBBY  MOCLDY    75  70  84 SE7       29.99S
*HOUSTON SW AP CLOUDY    74  72  95 E5        30.01S
PEARLAND       CLEAR     74  71  91 SE6       30.01S
HOUSTON HOOKS  PTCLDY    75  70  84 SE6       30.00R
ELLINGTON FLD  CLOUDY    73  72  94 E6        29.99S
SUGAR LAND     CLOUDY    75  72  90 SE9       29.99R
*HOUSTON EXEC  PTCLDY    73  73 100 SE8       30.01R
*CLEVELAND MUN PTCLDY    74  72  93 CALM      30.02S
*WHARTON       PTCLDY    55  53  94 SE6       30.00R
*COLUMBUS      CLOUDY    74  72  91 SE5       30.00S
*EAGLE LAKE    MOCLDY    70  69  98 SE5       29.99R
$$

TXZ214>216-236>238-200500-
THE UPPER TEXAS COAST

CITY           SKY/WX    TMP DP  RH WIND       PRES   REMARKS
*ORANGE        PTCLDY    75  72  88 S5        30.03S
PORT ARTHUR    PTCLDY    73  70  90 S9        30.01R
GALVESTON      PTCLDY    74  72  93 SE12      30.01R
ANGLETON       MOCLDY    73  72  96 SE7       29.99S
*BAY CITY      CLOUDY    74  72  91 SE10      30.00R
PALACIOS       CLOUDY    75  72  90 SE15      29.98R
$$

TXZ229>234-239>247-200500-
TEXAS COASTAL BEND AND RIO GRANDE PLAINS

CITY           SKY/WX    TMP DP  RH WIND       PRES   REMARKS
VICTORIA       CLOUDY    74  71  91 SE9       29.98R
*BEEVILLE      CLEAR     72  69  91 SE3       29.98R
ROCKPORT       MOCLDY    75  73  93 SE16      29.97R FOG
*PORT ARANSAS  CLEAR    N/A N/A N/A SE13      29.99R
*PORT LAVACA   MOCLDY    75  73  94 SE8       29.99R
*INGLESIDE     NOT AVBL
CORPUS CHRISTI MOCLDY    77  73  87 SE17      29.96S
CORPUS NAS     PTCLDY    79  74  84 E17       29.96R
*ROBSTOWN      PTCLDY    75  72  90 SE10      29.97S
ALICE          MOCLDY    74  70  87 SE10      29.96R
KINGSVILLE NAS CLOUDY    78  74  87 SE13      29.97R
COTULLA        MOCLDY    79  70  74 E6        29.97R
LAREDO         MOCLDY    81  69  67 E15G24    29.93R
$$

TXZ248>255-200500-
DEEP SOUTH TEXAS

CITY           SKY/WX    TMP DP  RH WIND       PRES   REMARKS
BROWNSVILLE    CLOUDY    78  74  87 E9        29.95R
PORT ISABEL    CLOUDY    77  74  90 SE12      29.96R
HARLINGEN      CLOUDY    75  72  90 SE8       29.95R
*HEBBRONVILLE  CLOUDY    74  69  83 SE10G17   29.98R
MCALLEN        CLOUDY    78  71  79 SE15      29.96R
*WESLACO       CLOUDY    78  70  76 SE12      29.96R
FALFURRIAS     MOCLDY    75  73  93 SE8       29.96R
EDINBURG       CLOUDY    77  70  78 SE9       29.96R
*ZAPATA          N/A     85  66  52 SE10G16   29.93R
$$

TXZ213>215-236>238-242>244-246-247-251-254-255-200500-
CMAN STATIONS

STATION/POSITION TIME  TEMP    WIND        PRES    WAVE
                       AIR SEA DIR/SP/G            HT/PER
                 (UTC) (F)     (DEG/KT/KT) (MB)    (FT/S)
SEA RIM ST PARK  0400   75                 1016.2
NORTH JETTY/GLS  0330   76 77  140/ 13/ 15 1014.7
EAGLE POINT      0330   80 79  140/ 14/ 16 1015.2
MORGANS POINT    0330   74 77  110/ 12/ 14 1015.3
PORT O`CONNOR    0324   74 78   80/ 16/ 19 1014.5
PORT ARANSAS     0400   75     110/ 14/ 15   N/A
BAFFIN BAY       0324   75 83   70/ 13/ 15 1013.7
PORT ISABEL      0324   76 78  110/ 11/ 12 1013.5
$$



USA.gov is the U.S. government's official web portal to all federal, state and local government web resources and services.